www.pogodaiklimat.ru

Погода и климат >> Архив погоды >> Сенегал >> Tambacounda


ПОГОДА в Tambacounda

  • Прогноз погоды в Tambacounda
  • Монитор погоды в Tambacounda
  • Климат города

АРХИВ ПОГОДЫ в Tambacounda

Время (UTC), дата Ветер
(напр.,м/с)
 
Видим.   Явления Облачность Т
(С)
Тd
(С)
f
(%)
Тe
(С)
Тes
(С)
Комфортность P
(гПа)
Po
(гПа)
Тmin
(С)
Tmax
(С)
R
(мм)
R24
(мм)
S
(см)
12 17.04 СВ 3 10 км ясно +38.9 +8.8 16 +37 +54 опасность
солнечного
удара
1012.3 1006.8
15 17.04 С 2 10 км ясно +41.8 +9.6 15 +40 +57 опасность
солнечного
удара
1009.1 1003.5
18 17.04 СЗ 1 10 км ясно +41.7 +9.1 14 +40 +42 очень
жарко
1007.9 1002.3 +42.4
21 17.04 С 1 10 км ясно +35.2 +9.9 21 +34 +34 очень
жарко
1009.5 1003.9
12 18.04 С 3 10 км ясно +37.5 +11.0 20 +36 +54 опасность
солнечного
удара
1012.6 1007.0
15 18.04 СЗ 5 10 км ясно +41.6 +11.2 17 +41 +49 опасность
перегрева
1009.8 1004.3
18 18.04 СЗ 4 10 км ясно +40.2 +8.1 14 +38 +39 очень
жарко
1009.1 1003.5 +41.6
21 18.04 СЗ 2 10 км ясно +36.6 +12.9 24 +37 +37 очень
жарко
1010.3 1004.7
00 19.04 СЗ 5 10 км ясно +33.4 +9.7 23 +32 +32 жарко 1011.5 1005.9
03 19.04 СЗ 2 10 км ясно +30.4 +9.2 27 +30 +30 жарко 1010.6 1005.1
06 19.04 Ю 2 10 км ясно +26.8 +10.4 36 +28 +28 жарко 1011.1 1005.5 +26.4
09 19.04 З 3 10 км ясно +28.4 +13.4 40 +30 +36 жарко 1013.9 1008.3
12 19.04 З 2 10 км ясно +33.5 +14.3 31 +35 +55 опасность
солнечного
удара
1013.6 1008.0
15 19.04 ЮЗ 2 10 км ясно +38.0 +10.7 19 +37 +53 опасность
солнечного
удара
1011.0 1015.4
18 19.04 СЗ 2 10 км ясно +38.0 +6.3 14 +35 +37 очень
жарко
1009.8 1004.2 +39.0
21 19.04 З 2 10 км ясно +33.5 +7.0 19 +32 +32 жарко 1011.5 1005.8
00 20.04 З 1 10 км ясно +29.4 +6.5 24 +28 +28 жарко 1012.1 1006.4
06 20.04 З 2 10 км ясно +24.4 +11.9 46 +26 +26 жарко 1011.1 1005.5 +23.8
09 20.04 З 3 10 км ясно +25.2 +14.0 50 +28 +33 жарко 1012.7 1007.0
12 20.04 СЗ 2 10 км ясно +32.0 +11.3 28 +32 +53 опасность
солнечного
удара
1012.6 1005.7
15 20.04 З 3 10 км 3/0
[Ci sp]
+37.0 +8.7 18 +35 +48 очень
жарко
1009.1 1003.5
18 20.04 З 2 10 км 3/0
[Ci sp]
+37.4 +5.3 14 +35 +36 очень
жарко
1008.0 1002.4 +38.0
21 20.04 З 1 10 км 6/0
[Ci sp]
+32.4 +7.0 21 +31 +31 жарко 1009.9 1004.2
00 21.04 СЗ 2 10 км 5/0
[Ci sp]
+29.5 +8.5 27 +29 +29 жарко 1010.5 1004.8
03 21.04 СЗ 2 10 км 5/0
[Ci sp]
+27.8 +7.5 28 +27 +27 жарко 1009.1 1003.5
06 21.04 СЗ 3 10 км 5/0
[Ci fib]
+25.2 +10.7 40 +26 +26 жарко 1009.7 1004.1 +25.4
09 21.04 СЗ 2 10 км 5/0
[Ci sp]
+26.5 +14.0 46 +29 +35 жарко 1011.4 1005.7
12 21.04 С 2 10 км 8/0
[Ci sp]
+34.5 +13.1 28 +35 +53 опасность
солнечного
удара
1010.5 1004.9
15 21.04 З 2 10 км ясно +38.4 +9.1 17 +37 +54 опасность
солнечного
удара
1007.6 1002.0
18 21.04 З 3 10 км ясно +39.5 +10.9 18 +38 +40 очень
жарко
1006.2 1000.6 +39.6
21 21.04 З 1 10 км ясно +34.1 +10.5 24 +33 +33 жарко 1008.5 1008.2
00 22.04 З 2 10 км ясно +30.8 +9.9 27 +30 +30 жарко 1009.9 1004.3
03 22.04 СЗ 2 10 км ясно +29.0 +14.2 40 +31 +31 жарко 1009.0 1003.4
06 22.04 Ю 1 10 км 6/0
[Ci sp]
+26.0 +15.2 51 +29 +29 душно 1010.0 1004.4 +25.6
09 22.04 З 3 10 км ясно +27.8 +11.6 37 +29 +34 жарко 1012.0 1006.4
12 22.04 С 1 10 км ясно +35.2 +10.5 22 +34 +59 опасность
солнечного
удара
1011.2 1005.6
15 22.04 З 4 10 км 3/0
[Ci sp]
+39.0 +9.4 17 +37 +48 очень
жарко
1007.5 1001.9
18 22.04 СЗ 2 10 км 3/0
[Ci sp]
+38.4 +12.2 21 +38 +40 очень
жарко
1006.4 1000.8 +41.0
21 22.04 СЗ 4 10 км 3/0
[Ci sp]
+35.0 +10.4 22 +34 +34 очень
жарко
1008.1 1002.5
00 23.04 СЗ 1 10 км ясно +31.2 +10.5 28 +31 +31 жарко 1010.8 1005.2
03 23.04 СЗ 4 10 км ясно +30.1 +7.6 24 +29 +29 жарко 1008.9 1003.4
06 23.04 СЗ 2 10 км 4/0
[Ci sp]
+27.8 +8.1 29 +28 +28 жарко 1009.9 1004.3 +27.0
09 23.04 З 2 10 км ясно +28.9 +9.3 29 +29 +36 жарко 1012.5 1006.9
12 23.04 СЗ 2 10 км 3/0
[Ci sp]
+36.4 +10.4 21 +35 +55 опасность
солнечного
удара
1011.7 1006.1
15 23.04 З 4 10 км 3/0
[Ci sp]
+40.6 +8.7 15 +39 +49 очень
жарко
1009.1 1002.8
18 23.04 СЗ 3 10 км 6/0
[Ci sp]
+40.0 +12.7 20 +40 +41 очень
душно
1007.2 1001.6 +41.5
21 23.04 СЗ 2 10 км 4/0
[Ci sp]
+36.2 +8.9 19 +35 +35 очень
жарко
1008.6 1003.0
00 24.04 СЗ 3 10 км 4/0
[Ac trans Ci sp]
+34.0 +8.6 21 +33 +33 жарко 1010.4 1004.9
03 24.04 СЗ 2 10 км 4/0
[Ac trans Ci sp]
+33.0 +5.7 18 +31 +31 жарко 1008.4 1002.9
06 24.04 СЗ 4 10 км 8/0
[Ac cast Ci sp]
+30.4 +8.9 26 +30 +30 жарко 1008.9 1003.4 +29.0
09 24.04 З 1 10 км 3/0
[Ac As]
+30.6 +11.0 30 +31 +37 жарко 1013.2 1007.6

 

Местоположение метеостанции Tambacounda (Сенегал): широта 13.77 долгота -13.68 высота над уровнем моря 50 м.

В архиве по умолчанию представлена погода в Tambacounda за последнюю неделю. Архивные данные за месяц целиком и за предыдущие месяцы, начиная с января 2011 года, Вы можете получить, выбрав интересующий диапазон дат из раскрывающегося списка и нажав кнопку "Ввод!".


*Определитесь, кто Вы:
робот инопланетянин человек

Внимание! Время в таблицах - всемирное. Для получения местного времени необходимо прибавить поправку, которая в Tambacounda равна 0 ч.

Смотрите также архив погоды в соседних городах и на ближайших метеорологических станциях:

Погода в Fatoto (Гамбия) (33 км)
Погода в Basse (Гамбия) (85 км)
Погода в Georgetown (Гамбия) (121 км)
Погода в Koundara (Гвинея) (135 км)
Погода в Kolda (Сенегал) (170 км)
Погода в Kauur (Гамбия) (177 км)
Погода в Jenoi (Гамбия) (207 км)
Погода в Kedougou (Сенегал) (208 км)
Погода в Bafata (Гвинея-Биссау) (208 км)
Погода в Matam (Сенегал) (214 км)

Пояснения к столбцам:

Ветер - указаны скорость ветра в м/с - средняя за 10 мин, порывы в срок и между сроками (в фигурных скобках) и направление, откуда дует ветер: С - северный, СВ - северо-восточный, В - восточный, ЮВ - юго-восточный, Ю - южный, ЮЗ - юго-западный, З - западный, СЗ - северо-западный.
Видимость - горизонтальная дальность видимости в метрах или километрах. При видимости от 1 до 10 км при отсутствии осадков обычно наблюдается дымка, при ухудшении видимости до 1 км и менее - туман. В сухую погоду видимость может ухудшаться дымом, пылью или мглою.
Явления - указаны атмосферные явления, наблюдавшиеся в срок или в последний час перед сроком; фигурными скобками обозначены явления, наблюдавшиеся между сроками (за 1-3 часа до срока); квадратными скобками обозначены град или гололедные отложения с указанием их диаметра в мм.
Облачность - указаны через наклонную черту общая и нижняя облачность в баллах и высота нижней границы облаков в метрах; квадратными скобками обозначены формы облаков: Ci - перистые, Cs - перисто-слоистые, Cc - перисто-кучевые, Ac - высококучевые, As - высокослоистые, Sc - слоисто-кучевые, Ns - слоисто-дождевые, Cu - кучевые, Cb - кучево-дождевые. Подробнее классификацию облаков см. в Атласе облаков (PDF).
T - Температура воздуха - температура, измеренная на высоте 2 м над землей.
Td - Температура точки росы - температура, при понижении до которой содержащийся в воздухе водяной пар достигнет насыщения.
f - Относительная влажность воздуха - влажноcть воздуха, измеренная на высоте 2 м над землей.
Te - Эффективная температура - температура, которую ощущает одетый по сезону человек в тени. Характеристика душности погоды. При расчете учитывается влияние влажности воздуха и скорости ветра на теплоощущения человека.
Tes - Эффективная температура на солнце - температура, которую ощущает человек, с поправкой на солнечный нагрев. Характеристика знойности погоды. Зависит от высоты солнца над горизонтом, облачности и скорости ветра. Ночью, в пасмурную погоду, а также при ветре 12 м/с и более поправка равна нулю.
P - Атмосферное давление - приведенное к уровню моря атмосферное давление.
Po - Атмосферное давление - измеренное на уровне метеостанции атмосферное давление.
Tmin - Минимальная температура - минимум температуры воздуха на высоте 2 м над землей.
Tmax - Максимальная температура - максимум температуры воздуха на высоте 2 м над землей.
R - Количество осадков - Количество выпавших осадков за период времени, мм. При наведении курсора мыши на число - период времени, за который выпало указанное количество осадков.
R24 - Количество осадков - Количество выпавших осадков за 24 часа, мм.
S - Снежный покров - Высота снежного покрова, см. При наведении курсора мыши на число - состояние снежного покрова и степень покрытия местности в баллах.